[[{"header":{"parameterUnit":"m.s-1","parameterCategory":1,"la1":30.2991,"la2":30.254,"lo1":-89.0895,"lo2":-89.0444,"dy":0.0017,"dx":0.0017,"nx":28,"ny":28,"refTime":"2024-04-17T03:00:00:Z","depth":0,"parameterNumber":2,"parameterNumberName":"U-component_of_WINDS"},"data":[0,0,0,0,0,0,0,0,0,0,0,0,0,0,0,0,0,0,0,0,0,0,0,0,0,0,0,0,0,0,0,0,0,0,0,0,0,0,0,0,0,0,0,0,0,0,0,0,0,0,0,0,0,0,0,0,0,0,-3.8967,-3.8968,0,-3.9099,-3.9101,-3.9102,-3.9118,-3.9117,-3.9116,-3.9115,-3.9251,-3.9256,-3.9261,0,0,0,0,0,0,0,0,0,0,0,0,0,-3.873,-3.8735,-3.8967,-3.8969,-3.897,-3.9099,-3.9101,-3.9103,-3.9119,-3.9117,-3.9115,-3.9114,-3.925,-3.9256,-3.9261,0,0,0,0,0,0,0,0,0,0,0,0,0,-3.8845,-3.8736,-3.8967,-3.8994,-3.8997,-3.9099,-3.9101,-3.9103,-3.9119,-3.9117,-3.9115,-3.9113,-3.9248,-3.9255,-3.9262,-3.9346,0,0,-3.9284,-3.9288,0,0,0,0,0,0,0,0,-3.8838,-3.8854,-3.8988,-3.8992,-3.8996,-3.909,-3.9068,-3.9185,-3.9119,-3.9073,-3.9115,-3.9112,-3.9199,-3.9211,-3.924,-3.9352,-3.9358,-3.9285,-3.9289,-3.9293,-3.9295,0,0,0,0,0,0,0,-3.8831,-3.8848,-3.9019,-3.899,-3.8995,-3.9,-3.9014,-3.909,-3.9145,-3.9077,-3.9078,-3.9094,-3.9201,-3.9233,-3.9243,-3.936,-3.9285,-3.9291,-3.9296,-3.9299,-3.9549,-3.9551,0,0,0,0,0,0,-3.8817,-3.8841,-3.9015,-3.9023,-3.8911,-3.9006,-3.9022,-3.9062,-3.9145,-3.9155,-3.9095,-3.9094,-3.9221,-3.9235,-3.9248,-3.9351,-3.9293,-3.9299,-3.9304,-3.9547,-3.955,-3.9552,0,0,0,0,0,0,-3.8812,-3.8833,-3.901,-3.8933,-3.8956,-3.9012,-3.9057,-3.9066,-3.9097,-3.9159,-3.9169,-3.9117,-3.922,-3.9238,-3.9322,-3.9356,-3.9303,-3.9309,-3.9544,-3.9548,-3.9551,-3.9558,0,0,0,0,0,0,-3.8805,-3.8831,-3.8862,-3.8933,-3.896,-3.908,-3.906,-3.907,-3.9109,-3.9109,-3.9181,-3.9192,-3.922,-3.9311,-3.9329,-3.9365,-3.9315,-3.9541,-3.9546,-3.955,-3.9555,-3.9562,-3.9567,0,0,0,0,0,-3.8797,-3.886,-3.8864,-3.8885,-3.9,-3.9082,-3.9097,-3.9128,-3.9112,-3.9145,-3.9185,-3.9189,-3.935,-3.9319,-3.934,-3.9379,-3.9539,-3.9544,-3.9549,-3.9552,-3.956,-3.9567,0,0,0,0,0,0,-3.8791,-3.8869,-3.8875,-3.8962,-3.9016,-3.9085,-3.9127,-3.9136,-3.9195,-3.9192,-3.9229,-3.9245,-3.9327,-3.9362,-3.9326,-3.9465,-3.9443,-3.9453,-3.9438,-3.9446,-3.9452,-3.9441,-3.9321,0,0,0,0,0,-3.88,-3.886,-3.8925,-3.8996,-3.9022,-3.907,-3.9107,-3.9126,-3.9183,-3.9205,-3.9251,-3.9307,-3.937,-3.941,-3.9472,-3.9561,-3.9577,-3.9599,-3.9604,-3.9609,-3.9616,-3.9666,-3.9676,-3.9569,-3.9569,-3.9569,0,0,-3.8819,-3.8869,-3.8904,-3.8996,-3.9039,-3.91,-3.9089,-3.9154,-3.92,-3.9216,-3.9297,-3.9333,-3.9397,-3.9484,-3.9525,-3.9516,-3.965,-3.9616,-3.9619,-3.9624,-3.9672,-3.9683,-3.9691,-3.9572,-3.9572,-3.9571,0,0,-3.8885,-3.8929,-3.8992,-3.9036,-3.9102,-3.9134,-3.9149,-3.9218,-3.9242,-3.9325,-3.9338,-3.9394,-3.9502,-3.9547,-3.9584,-3.9668,-3.9675,-3.9688,-3.9718,-3.9766,-3.9775,-3.9782,-3.9812,-3.9822,-3.9695,-3.9695,-3.9695,0,-3.89,-3.8992,-3.9024,-3.9089,-3.9129,-3.9147,-3.9212,-3.9253,-3.9336,-3.9363,-3.9352,-3.9488,-3.9533,-3.963,-3.9651,-3.9681,-3.97,-3.9678,-3.9771,-3.9779,-3.9786,-3.9815,-3.9826,-3.9696,-3.9696,-3.9696,-3.9696,0,-3.9007,-3.9071,-3.9115,-3.9193,-3.9239,-3.9303,-3.9346,-3.9389,-3.9405,-3.9438,-3.9522,-3.9577,-3.9649,-3.9674,-3.9691,-3.9775,-3.9767,-3.9763,-3.9742,-3.9797,-3.9824,-3.9835,-3.9698,-3.9697,-3.9697,-3.9697,0,0,-3.9071,-3.9168,-3.9183,-3.9219,-3.9294,-3.9344,-3.9411,-3.9481,-3.9516,-3.9574,-3.963,-3.9722,-3.9719,-3.9761,-3.9783,-3.9826,-3.9888,-3.9817,-3.9819,-3.9827,-3.9984,-3.9985,-3.9997,-3.9894,-3.9896,-3.9898,-3.9978,0,-3.9144,-3.9261,-3.9293,-3.9392,-3.9451,-3.947,-3.9527,-3.958,-3.9613,-3.9669,-3.9707,-3.977,-3.9762,-3.9788,-3.9831,-3.9871,-3.992,-3.9867,-3.9947,-3.9949,-3.9928,-4.0012,-4.0013,-4.0086,-3.9989,-3.9991,-3.9992,0,-3.9244,-3.9303,-3.9408,-3.9475,-3.9501,-3.9552,-3.962,-3.9674,-3.9734,-3.9756,-3.9803,-3.9822,-3.9892,-3.9869,-3.9966,-3.9929,-3.9964,-3.999,-3.9993,-4.0001,-3.9972,-4.002,-4.011,-4.012,-4.001,-4.0008,-4.0007,0,-3.9279,-3.9384,-3.9461,-3.9491,-3.9572,-3.9608,-3.9643,-3.9702,-3.9743,-3.9803,-3.983,-3.9897,-3.9934,-3.9986,-4.0023,-4.0003,-4.0118,-4.0097,-4.0137,-4.0136,-4.0159,-4.0156,-4.0254,-4.0184,-4.0184,-4.0184,-4.0183,0,-3.9356,-3.9419,-3.9477,-3.9524,-3.9596,-3.9633,-3.9703,-3.974,-3.9792,-3.9847,-3.9868,-3.9919,-3.9965,-4.0023,-4.0053,-4.0129,-4.0145,-4.0165,-4.0171,-4.0162,-4.0159,-4.0184,-4.0179,-4.0187,-4.0186,-4.0185,-4.0185,0,-3.9406,-3.9447,-3.9531,-3.9602,-3.9621,-3.967,-3.9731,-3.9778,-3.9812,-3.9881,-3.99,-3.9955,-4.0024,-4.0066,-4.0154,-4.0174,-4.0257,-4.0263,-4.0236,-4.0239,-4.0276,-4.0271,-4.0392,-4.0409,-4.0329,-4.0329,-4.033,0,-3.9451,-3.95,-3.9576,-3.9614,-3.9649,-3.971,-3.9752,-3.9791,-3.9834,-3.9907,-3.9945,-4.0016,-4.0074,-4.0183,-4.0231,-4.0299,-4.0306,-4.0343,-4.0316,-4.0305,-4.0305,-4.0301,-4.0306,-4.0347,-4.0348,-4.0348,-4.0349,0,-3.9528,-3.9546,-3.9605,-3.9671,-3.972,-3.9775,-3.9829,-3.9859,-3.9908,-3.9955,-4.0025,-4.007,-4.016,-4.023,-4.0302,-4.0339,-4.0352,-4.0357,-4.037,-4.036,-4.0342,-4.0351,-4.0247,-4.0354,-4.0353,-4.0353,-4.0353,-4.0352,-3.9577,-3.9621,-3.9681,-3.9746,-3.9791,-3.9841,-3.9888,-3.9929,-3.9988,-4.0063,-4.0084,-4.0157,-4.0218,-4.0316,-4.0355,-4.0414,-4.0409,-4.0427,-4.0432,-4.0435,-4.0435,-4.0334,-4.0428,-4.0428,-4.0428,-4.0428,-4.0428,0,-3.9653,-3.9693,-3.9752,-3.9827,-3.9878,-3.9886,-3.9947,-3.999,-4.0054,-4.0109,-4.0166,-4.0248,-4.0316,-4.037,-4.044,-4.0476,-4.0484,-4.0493,-4.049,-4.0499,-4.0437,-4.0418,-4.0486,-4.0486,-4.0486,-4.0486,-4.0486,-4.0486,-3.9699,-3.9774,-3.9799,-3.9898,-3.9937,-4.0009,-4.0043,-4.009,-4.0134,-4.0224,-4.028,-4.0315,-4.037,-4.0444,-4.0507,-4.0522,-4.0546,-4.0554,-4.0569,-4.051,-4.0503,-4.0497,-4.048,-4.0559,-4.0559,-4.0626,-4.0626,-4.0627]},{"header":{"parameterUnit":"m.s-1","parameterCategory":1,"la1":30.2991,"la2":30.254,"lo1":-89.0895,"lo2":-89.0444,"dy":0.0017,"dx":0.0017,"nx":28,"ny":28,"refTime":"2024-04-17T03:00:00:Z","depth":0,"parameterNumber":3,"parameterNumberName":"V-component_of_WINDS"},"data":[0,0,0,0,0,0,0,0,0,0,0,0,0,0,0,0,0,0,0,0,0,0,0,0,0,0,0,0,0,0,0,0,0,0,0,0,0,0,0,0,0,0,0,0,0,0,0,0,0,0,0,0,0,0,0,0,0,0,4.0935,4.0935,0,4.0935,4.0935,4.0935,4.091,4.0909,4.0909,4.0908,4.0906,4.0907,4.0908,0,0,0,0,0,0,0,0,0,0,0,0,0,4.0912,4.0913,4.0935,4.0935,4.0935,4.0935,4.0935,4.0935,4.091,4.0909,4.0909,4.0908,4.0906,4.0907,4.0908,0,0,0,0,0,0,0,0,0,0,0,0,0,4.0918,4.0913,4.0935,4.0923,4.0921,4.0935,4.0935,4.0935,4.091,4.0909,4.0908,4.0907,4.0906,4.0907,4.0908,4.0932,0,0,4.091,4.0911,0,0,0,0,0,0,0,0,4.0918,4.0919,4.0924,4.0923,4.0922,4.0922,4.0926,4.0934,4.0911,4.0914,4.0908,4.0907,4.0912,4.0912,4.0915,4.0932,4.0932,4.091,4.0911,4.0911,4.0911,0,0,0,0,0,0,0,4.0918,4.0919,4.0935,4.0924,4.0923,4.0917,4.0917,4.0928,4.0919,4.0914,4.0912,4.0913,4.0911,4.0914,4.0914,4.0932,4.091,4.0911,4.0912,4.0912,4.0972,4.0973,0,0,0,0,0,0,4.0919,4.0919,4.0935,4.0935,4.0918,4.0918,4.0918,4.0923,4.0919,4.0917,4.0914,4.0912,4.0913,4.0913,4.0914,4.0944,4.0911,4.0912,4.0913,4.0971,4.0972,4.0973,0,0,0,0,0,0,4.0919,4.0921,4.0935,4.0926,4.0928,4.0919,4.0925,4.0923,4.0926,4.0918,4.0916,4.0918,4.0912,4.0913,4.0929,4.0943,4.0912,4.0913,4.0969,4.0971,4.0973,4.1002,0,0,0,0,0,0,4.0918,4.0921,4.093,4.0927,4.0928,4.0949,4.0926,4.0924,4.0927,4.0925,4.0922,4.092,4.0911,4.0927,4.0929,4.0944,4.0914,4.0968,4.097,4.0972,4.1,4.1005,4.1009,0,0,0,0,0,4.0917,4.0938,4.0931,4.0933,4.094,4.095,4.0951,4.0941,4.0929,4.0938,4.0934,4.092,4.0941,4.0929,4.0931,4.0946,4.0967,4.097,4.0972,4.0998,4.1004,4.1009,0,0,0,0,0,0,4.0942,4.0937,4.0929,4.0949,4.095,4.0946,4.0957,4.0947,4.0952,4.0949,4.0936,4.0935,4.0953,4.0951,4.0938,4.0971,4.0952,4.0955,4.0971,4.0977,4.0981,4.0981,4.0915,0,0,0,0,0,4.095,4.0959,4.0954,4.0972,4.0973,4.0965,4.0969,4.0962,4.0963,4.0963,4.0959,4.096,4.0967,4.0972,4.0978,4.1,4.0999,4.1011,4.1016,4.1019,4.1022,4.1035,4.104,4.0981,4.0981,4.0981,0,0,4.0965,4.0964,4.097,4.0977,4.0977,4.0987,4.0966,4.0977,4.0984,4.0964,4.0979,4.0977,4.0977,4.0996,4.1005,4.0995,4.1038,4.1022,4.1025,4.1026,4.1038,4.1043,4.1048,4.0983,4.0983,4.0982,0,0,4.0999,4.0999,4.1015,4.1016,4.1017,4.1012,4.1016,4.1014,4.1012,4.1027,4.1012,4.1021,4.1033,4.1034,4.1036,4.1072,4.1061,4.1075,4.1098,4.111,4.1115,4.1119,4.1133,4.1138,4.1077,4.1077,4.1078,0,4.1019,4.1033,4.1024,4.1036,4.104,4.1024,4.104,4.1041,4.1044,4.1046,4.1036,4.1052,4.1051,4.1071,4.108,4.1082,4.1086,4.1075,4.1115,4.1119,4.1123,4.1136,4.1141,4.1079,4.1079,4.1079,4.1079,0,4.1058,4.1068,4.1081,4.1085,4.109,4.1104,4.1097,4.1103,4.1096,4.1092,4.1108,4.1106,4.1112,4.1116,4.1108,4.1135,4.113,4.1117,4.1098,4.113,4.1142,4.1147,4.1082,4.1081,4.1081,4.108,0,0,4.1105,4.1106,4.1111,4.1113,4.1114,4.1122,4.1136,4.1143,4.1148,4.1151,4.1163,4.1174,4.1163,4.1166,4.1158,4.1169,4.12,4.1156,4.1156,4.1164,4.123,4.1239,4.1245,4.1192,4.1193,4.1194,4.123,0,4.1139,4.1163,4.1156,4.118,4.119,4.1176,4.1188,4.119,4.1187,4.1195,4.1192,4.12,4.1185,4.1187,4.1197,4.1194,4.1213,4.1191,4.1202,4.1203,4.1203,4.1251,4.1261,4.1295,4.1235,4.1236,4.1236,0,4.1181,4.1187,4.1213,4.1214,4.1217,4.1229,4.1235,4.1243,4.1245,4.1242,4.1246,4.1237,4.125,4.1232,4.1251,4.1237,4.1241,4.124,4.1241,4.1242,4.1221,4.1253,4.1306,4.1311,4.1243,4.1243,4.1242,0,4.1214,4.1229,4.1246,4.1249,4.125,4.1258,4.1259,4.126,4.1265,4.1271,4.1274,4.1281,4.1284,4.129,4.1283,4.127,4.1303,4.1284,4.1301,4.1301,4.1308,4.1308,4.1363,4.1311,4.1311,4.1311,4.1311,0,4.1252,4.1269,4.1261,4.1272,4.129,4.1282,4.13,4.1299,4.1301,4.1311,4.1299,4.1309,4.1299,4.1308,4.1302,4.1319,4.1321,4.1319,4.1317,4.132,4.132,4.1323,4.132,4.1312,4.1312,4.1312,4.1311,0,4.1292,4.1288,4.1306,4.1307,4.1307,4.1321,4.1321,4.1331,4.1328,4.1341,4.1344,4.1339,4.1349,4.1343,4.1352,4.1349,4.1371,4.1366,4.1371,4.1369,4.1387,4.1386,4.1445,4.1453,4.1396,4.1397,4.1397,0,4.1317,4.1329,4.1332,4.1338,4.134,4.1351,4.1357,4.1349,4.1355,4.136,4.1369,4.1379,4.1386,4.1403,4.14,4.1408,4.1403,4.1423,4.1404,4.1407,4.1404,4.1403,4.1405,4.1427,4.1428,4.1428,4.1429,0,4.1361,4.1359,4.1368,4.1377,4.1384,4.139,4.1396,4.1402,4.1394,4.1402,4.1413,4.1419,4.143,4.1439,4.1446,4.1447,4.1437,4.1435,4.144,4.1442,4.1445,4.1444,4.1382,4.1433,4.1433,4.1433,4.1432,4.1432,4.1394,4.1405,4.1409,4.142,4.1424,4.1429,4.1439,4.1438,4.1447,4.1457,4.1451,4.1465,4.1467,4.1476,4.1478,4.1488,4.148,4.1486,4.1488,4.1489,4.1492,4.1444,4.1489,4.1489,4.1489,4.1489,4.1489,0,4.1439,4.1441,4.1451,4.146,4.1468,4.1459,4.1465,4.1473,4.1485,4.1489,4.1497,4.151,4.152,4.1518,4.1527,4.1535,4.1531,4.1538,4.1537,4.1538,4.1499,4.1494,4.1541,4.1541,4.1541,4.1541,4.1541,4.1541,4.1463,4.1482,4.148,4.1501,4.1502,4.1516,4.152,4.1525,4.1529,4.1544,4.1553,4.1552,4.1554,4.1563,4.1572,4.1571,4.1575,4.1584,4.1582,4.1545,4.154,4.1535,4.1531,4.1585,4.1585,4.162,4.162,4.162]}]]